Regional Weather Roundup
Issued by NWS

Home | Current Version | Previous Version | Graphics & Text | Print | Product List | Glossary On
Versions: 1 2 3 4 5 6 7 8 9 10 11 12 13 14 15 16 17 18 19 20 21 22 23 24 25 26 27 28 29 30 31 32 33 34 35 36 37 38 39 40 41 42 43 44 45 46 47 48 49 50
424
ASUS45 KCYS 041110
RWRWY

WYOMING REGIONAL WEATHER ROUNDUP
NATIONAL WEATHER SERVICE CHEYENNE WY
500 AM MDT WED MAY 04 2016

NOTE:  "FAIR" INDICATES FEW OR NO CLOUDS BELOW 12,000 FEET
WITH NO SIGNIFICANT WEATHER AND/OR OBSTRUCTIONS TO VISIBILITY.

WYZ001-041200-
YELLOWSTONE NATIONAL PARK

CITY           SKY/WX    TMP DP  RH WIND       PRES   REMARKS
LK YELLOWSTONE   N/A     26  22  84 CALM      30.34F
W YELLOWSTONE  NOT AVBL

$$
WYZ002>013-054>058-071-098>099-041200-
NORTHERN WYOMING

CITY           SKY/WX    TMP DP  RH WIND       PRES   REMARKS
JACKSON        FAIR      30  27  86 N5        30.29F WCI  25
CODY           FAIR      52  28  40 SW6       30.15F
GREYBULL       FAIR      48  34  58 E3        30.13F
WORLAND        FAIR      44  37  76 CALM      30.14F
SHERIDAN       FAIR      40  35  83 N3        30.11S
BUFFALO        FAIR      50  32  50 SW8       30.15F
GILLETTE       FAIR      45  38  76 S12       30.15F
HULETT         FAIR      45  34  65 S5        30.17F
NEWCASTLE      FAIR      43  32  65 CALM      30.19S

$$
WYZ014>020-022>026-101>103-041200-
CENTRAL WYOMING

CITY           SKY/WX    TMP DP  RH WIND       PRES   REMARKS
BIG PINEY      FAIR      29  23  78 NW6       30.31S WCI  23
PINEDALE       FAIR      30  27  86 N6        30.31S WCI  24
DUBOIS         FAIR      34  27  75 W10       30.29F WCI  26
LANDER         FAIR      44  31  60 CALM      30.21S
RIVERTON       FAIR      41  34  76 NW7       30.21F
CASPER         FAIR      38  32  79 W8        30.22F WCI  32
DOUGLAS        FAIR      36  34  92 CALM      30.22F

$$
WYZ021-027>030-104>119-041200-
SOUTHERN WYOMING

CITY           SKY/WX    TMP DP  RH WIND       PRES   REMARKS
EVANSTON       FAIR      45  25  45 SE5       30.28F
KEMMERER         N/A     36  27  69 N13       30.28F WCI  27
FORT BRIDGER   SUNNY     45  25  45 W10       30.30F
ROCK SPRINGS   FAIR      41  27  57 S7        30.28S
DIXON          FAIR      37  28  70 CALM      30.32S
RAWLINS        FAIR      30  26  85 CALM      30.29F
SARATOGA       FAIR      34  28  80 S8        30.31S WCI  27
LARAMIE        FAIR      30  29  96 SE8       30.30F WCI  22
CHEYENNE       FAIR      40  32  73 W12       30.25F WCI  33
TORRINGTON     FAIR      41  37  86 W3        30.18S
PINE BLUFFS    FAIR      36  32  87 W6        30.23S WCI  31

$$




USA.gov is the U.S. government's official web portal to all federal, state and local government web resources and services.